Regional Weather Roundup
Issued by NWS Jackson, KY

Home | Current Version | Previous Version | Text Only | Print | Product List | Glossary Off
Versions: 1 2 3 4 5 6 7 8 9 10 11 12 13 14 15 16 17 18 19 20 21 22 23 24 25 26 27 28 29 30 31 32 33 34 35 36 37 38 39 40 41 42 43 44 45 46 47 48 49 50

000
ASUS43 KJKL 101610
RWRJKL

EAST KENTUCKY HOURLY WEATHER ROUNDUP
NATIONAL WEATHER SERVICE JACKSON KY
1100 AM EST SUN DEC 10 2017

NOTE: "FAIR" INDICATES FEW OR NO CLOUDS BELOW 12,000 FEET WITH
NO SIGNIFICANT WEATHER AND/OR OBSTRUCTIONS TO VISIBILITY.

* THESE REPORTS ARE NOT UNDER NWS QUALITY CONTROL AND MAY NOT
  REPORT WEATHER SUCH AS PRECIPITATION AND FOG.

KYZ079-080-083-085-087-088-110-112-115-119-120-101700
...EASTERN KENTUCKY...

CITY           SKY/WX    TMP DP  RH WIND       PRES   REMARKS
JACKSON        SUNNY     30  18  60 SW8G20    30.16F WCI  22
LONDON         SUNNY     30  18  60 SW10      30.20F WCI  21
SOMERSET*      SUNNY     32  18  55 W16       30.23F WCI  21
MONTICELLO*    SUNNY     33  19  56 SW20G25   30.23F WCI  21
WILLIAMSBURG*  SUNNY     32  18  55 S9        30.21F WCI  24
MIDDLESBORO*   SUNNY     33  17  51 SW3       30.23F
HARLAN APT*    SUNNY     32  18  55 CALM      30.19F
PIKE CO APT*     N/A     31  19  61 SW8       30.15F WCI  23
BIG SANDY APT* SUNNY     31  19  60 SW9       30.16F WCI  23
MOREHEAD APT*  SUNNY     30  18  59 SW12G18   30.19S WCI  21
$$

KYZ035-036-041-042-044-050-067-078-099-101700
...CENTRAL KENTUCKY...

CITY           SKY/WX    TMP DP  RH WIND       PRES   REMARKS
MT STERLING*   PTSUNNY   30  18  59 W10       30.19F WCI  21
FLEMING/MASON* MOSUNNY   31  19  62 SW13G21   30.17F WCI  21
DANVILLE*      PTSUNNY   30  19  64 SW10      30.20S WCI  21
LEXINGTON      MOSUNNY   31  19  61 SW16G25   30.17F WCI  20
FRANKFORT      PTSUNNY   32  17  54 SW12      30.16F WCI  23
LOUISVILLE     CLOUDY    33  18  53 SW16G24   30.17F WCI  23
LEBANON*         N/A     32  18  55 SW12G21   30.21R WCI  23
GLASGOW*       SUNNY     34  19  55 SW10      30.22S WCI  26
BOWLING GREEN  CLOUDY    35  20  54 SW15      30.24S WCI  25
$$

KYZ091>093-OHZ055-061-077-WVZ005-015-034-035-042-101700
...SOUTHERN OHIO/WEST VIRGINIA...

CITY           SKY/WX    TMP DP  RH WIND       PRES   REMARKS
COVINGTON      CLOUDY    27  19  72 SW12G20   30.12S WCI  17
COLUMBUS       CLOUDY    28  19  69 SW13      30.10R WCI  17
DAYTON         CLOUDY    24  18  77 SW13      30.08S WCI  12
WILMINGTON     CLOUDY    25  18  74 SW16      30.10S WCI  12
HUNTINGTON     MOSUNNY   31  18  58 S10       30.16S WCI  22
CHARLESTON     PTSUNNY   31  20  63 SW14G21   30.14F WCI  21
PINEVILLE*       N/A     30  20  66 MISG      30.19S
BECKLEY        CLOUDY    25  17  72 W13G18    30.08S WCI  14
BLUEFIELD      CLOUDY    24  15  68 W16       30.08R WCI  11
LOGAN CO APT*  CLOUDY    30  19  64 VRB5G15   30.13F WCI  25
$$

VAZ002-007-008-TNZ017-027-036-066-071-101700
...SOUTHWEST VIRGINIA/EAST TENNESSEE...

CITY           SKY/WX    TMP DP  RH WIND       PRES   REMARKS
WISE*          MOSUNNY   28  21  74 SW13      30.12F WCI  18
JONESVILLE*      N/A     32  16  51 SW9       30.22F WCI  24
ABINGDON*      MOSUNNY   30  19  64 W9        30.16S WCI  21
BRISTOL        MOSUNNY   33  19  56 W12       30.21S WCI  24
MORRISTOWN*    SUNNY     34  18  51 SW13      30.22F WCI  25
SEVIERVILLE*   SUNNY     36  18  48 VRB5      30.25F WCI  32
KNOXVILLE      SUNNY     34  21  59 VRB7      30.26S WCI  28
LAFOLLETTE*    SUNNY     34  18  51 VRB6      30.26F WCI  29
OAK RIDGE      SUNNY     35  19  52 VRB5      30.27S WCI  31
CROSSVILLE     SUNNY     30  17  58 W9        30.21S WCI  22
NASHVILLE      SUNNY     37  20  50 SW12      30.26F WCI  29
$$

...KEY TO REMARKS...
VSB - VISIBILITY IN MILES
WCI - WIND CHILL INDEX
HX  - HEAT INDEX

$$



USA.gov is the U.S. government's official web portal to all federal, state and local government web resources and services.